Location: Chavannes
(47.1090°N, 0.2226°W)
Time: 14:12:03
(UTC+00:00)

SL-08 RB Rocket - Pass Details

Date: 16 October 2021
Orbit: 646 x 683 km, 97.8° (Epoch: 02 December)

Event Time Altitude Azimuth Distance (km) Brightness Sun altitude
Rises 18:53:51 0° 175° (S) 2,965 6.9 -18.2°
Reaches altitude 10° 18:56:05 10° 178° (S) 2,064 6.1 -18.5°
Maximum altitude 19:00:32 61° 259° (W) 754 4.2 -19.3°
Drops below altitude 10° 19:05:05 10° 340° (NNW) 2,104 6.6 -20.1°
Sets 19:07:22 0° 344° (NNW) 3,028 7.4 -20.5°
